Year,Month,Day,Hour,Minute,Value (Times are PST for temperature in C)
2015,07,20,00,00,21.40
2015,07,20,00,01,21.40
2015,07,20,00,02,21.40
2015,07,20,00,03,21.40
2015,07,20,00,04,21.30
2015,07,20,00,05,21.30
2015,07,20,00,06,21.30
2015,07,20,00,07,21.30
2015,07,20,00,08,21.30
2015,07,20,00,09,21.30
2015,07,20,00,10,21.30
2015,07,20,00,11,21.20
2015,07,20,00,12,21.20
2015,07,20,00,13,21.20
2015,07,20,00,14,21.10
2015,07,20,00,15,21.10
2015,07,20,00,16,21.10
2015,07,20,00,17,21.00
2015,07,20,00,18,21.00
2015,07,20,00,19,20.90
2015,07,20,00,20,20.90
2015,07,20,00,21,20.90
2015,07,20,00,22,20.90
2015,07,20,00,23,20.80
2015,07,20,00,24,20.80
2015,07,20,00,25,20.70
2015,07,20,00,26,20.70
2015,07,20,00,27,20.60
2015,07,20,00,28,20.60
2015,07,20,00,29,20.50
2015,07,20,00,30,20.50
2015,07,20,00,31,20.50
2015,07,20,00,32,20.40
2015,07,20,00,33,20.40
2015,07,20,00,34,20.30
2015,07,20,00,35,20.20
2015,07,20,00,36,20.20
2015,07,20,00,37,20.20
2015,07,20,00,38,20.20
2015,07,20,00,39,20.20
2015,07,20,00,40,20.20
2015,07,20,00,41,20.10
2015,07,20,00,42,20.10
2015,07,20,00,43,20.10
2015,07,20,00,44,20.00
2015,07,20,00,45,19.90
2015,07,20,00,46,19.90
2015,07,20,00,47,19.90
2015,07,20,00,48,19.90
2015,07,20,00,49,19.90
2015,07,20,00,50,19.90
2015,07,20,00,51,19.90
2015,07,20,00,52,19.80
2015,07,20,00,53,19.80
2015,07,20,00,54,19.80
2015,07,20,00,55,19.70
2015,07,20,00,56,19.70
2015,07,20,00,57,19.70
2015,07,20,00,58,19.70
2015,07,20,00,59,19.70
2015,07,20,01,00,19.70
2015,07,20,01,01,19.60
2015,07,20,01,02,19.60
2015,07,20,01,03,19.60
2015,07,20,01,04,19.50
2015,07,20,01,05,19.50
2015,07,20,01,06,19.50
2015,07,20,01,07,19.50
2015,07,20,01,08,19.40
2015,07,20,01,09,19.40
2015,07,20,01,10,19.40
2015,07,20,01,11,19.40
2015,07,20,01,12,19.40
2015,07,20,01,13,19.40
2015,07,20,01,14,19.40
2015,07,20,01,15,19.40
2015,07,20,01,16,19.40
2015,07,20,01,17,19.40
2015,07,20,01,18,19.40
2015,07,20,01,19,19.40
2015,07,20,01,20,19.30
2015,07,20,01,21,19.30
2015,07,20,01,22,19.30
2015,07,20,01,23,19.30
2015,07,20,01,24,19.20
2015,07,20,01,25,19.20
2015,07,20,01,26,19.20
2015,07,20,01,27,19.20
2015,07,20,01,28,19.20
2015,07,20,01,29,19.10
2015,07,20,01,30,19.10
2015,07,20,01,31,19.10
2015,07,20,01,32,19.10
2015,07,20,01,33,19.10
2015,07,20,01,34,19.10
2015,07,20,01,35,19.10
2015,07,20,01,36,19.10
2015,07,20,01,37,19.10
2015,07,20,01,38,19.10
2015,07,20,01,39,19.10
2015,07,20,01,40,19.10
2015,07,20,01,41,19.10
2015,07,20,01,42,19.10
2015,07,20,01,43,19.10
2015,07,20,01,44,19.10
2015,07,20,01,45,19.10
2015,07,20,01,46,19.10
2015,07,20,01,47,19.10
2015,07,20,01,48,19.10
2015,07,20,01,49,19.10
2015,07,20,01,50,19.10
2015,07,20,01,51,19.10
2015,07,20,01,52,19.10
2015,07,20,01,53,19.10
2015,07,20,01,54,19.10
2015,07,20,01,55,19.10
2015,07,20,01,56,19.10
2015,07,20,01,57,19.10
2015,07,20,01,58,19.10
2015,07,20,01,59,19.10
2015,07,20,02,00,19.10
2015,07,20,02,01,19.10
2015,07,20,02,02,19.10
2015,07,20,02,03,19.10
2015,07,20,02,04,19.10
2015,07,20,02,05,19.00
2015,07,20,02,06,18.90
2015,07,20,02,07,18.90
2015,07,20,02,08,18.90
2015,07,20,02,09,18.90
2015,07,20,02,10,18.90
2015,07,20,02,11,18.90
2015,07,20,02,12,18.90
2015,07,20,02,13,18.90
2015,07,20,02,14,18.90
2015,07,20,02,15,18.90
2015,07,20,02,16,18.80
2015,07,20,02,17,18.80
2015,07,20,02,18,18.80
2015,07,20,02,19,18.70
2015,07,20,02,20,18.70
2015,07,20,02,21,18.70
2015,07,20,02,22,18.70
2015,07,20,02,23,18.70
2015,07,20,02,24,18.70
2015,07,20,02,25,18.70
2015,07,20,02,26,18.70
2015,07,20,02,27,18.70
2015,07,20,02,28,18.70
2015,07,20,02,29,18.70
2015,07,20,02,30,18.60
2015,07,20,02,31,18.60
2015,07,20,02,32,18.60
2015,07,20,02,33,18.60
2015,07,20,02,34,18.60
2015,07,20,02,35,18.50
2015,07,20,02,36,18.50
2015,07,20,02,37,18.50
2015,07,20,02,38,18.40
2015,07,20,02,39,18.40
2015,07,20,02,40,18.30
2015,07,20,02,41,18.30
2015,07,20,02,42,18.30
2015,07,20,02,43,18.30
2015,07,20,02,44,18.30
2015,07,20,02,45,18.30
2015,07,20,02,46,18.30
2015,07,20,02,47,18.30
2015,07,20,02,48,18.30
2015,07,20,02,49,18.30
2015,07,20,02,50,18.30
2015,07,20,02,51,18.30
2015,07,20,02,52,18.30
2015,07,20,02,53,18.30
2015,07,20,02,54,18.30
2015,07,20,02,55,18.20
2015,07,20,02,56,18.30
2015,07,20,02,57,18.30
2015,07,20,02,58,18.20
2015,07,20,02,59,18.20
2015,07,20,03,00,18.20
2015,07,20,03,01,18.20
2015,07,20,03,02,18.20
2015,07,20,03,03,18.20
2015,07,20,03,04,18.20
2015,07,20,03,05,18.20
2015,07,20,03,06,18.20
2015,07,20,03,07,18.20
2015,07,20,03,08,18.20
2015,07,20,03,09,18.20
2015,07,20,03,10,18.20
2015,07,20,03,11,18.20
2015,07,20,03,12,18.20
2015,07,20,03,13,18.20
2015,07,20,03,14,18.20
2015,07,20,03,15,18.20
2015,07,20,03,16,18.20
2015,07,20,03,17,18.20
2015,07,20,03,18,18.20
2015,07,20,03,19,18.30
2015,07,20,03,20,18.30
2015,07,20,03,21,18.30
2015,07,20,03,22,18.20
2015,07,20,03,23,18.20
2015,07,20,03,24,18.30
2015,07,20,03,25,18.30
2015,07,20,03,26,18.30
2015,07,20,03,27,18.30
2015,07,20,03,28,18.30
2015,07,20,03,29,18.30
2015,07,20,03,30,18.30
2015,07,20,03,31,18.30
2015,07,20,03,32,18.30
2015,07,20,03,33,18.30
2015,07,20,03,34,18.30
2015,07,20,03,35,18.30
2015,07,20,03,36,18.30
2015,07,20,03,37,18.30
2015,07,20,03,38,18.30
2015,07,20,03,39,18.30
2015,07,20,03,40,18.30
2015,07,20,03,41,18.30
2015,07,20,03,42,18.20
2015,07,20,03,43,18.20
2015,07,20,03,44,18.20
2015,07,20,03,45,18.20
2015,07,20,03,46,18.20
2015,07,20,03,47,18.20
2015,07,20,03,48,18.20
2015,07,20,03,49,18.20
2015,07,20,03,50,18.20
2015,07,20,03,51,18.20
2015,07,20,03,52,18.20
2015,07,20,03,53,18.20
2015,07,20,03,54,18.20
2015,07,20,03,55,18.20
2015,07,20,03,56,18.20
2015,07,20,03,57,18.20
2015,07,20,03,58,18.20
2015,07,20,03,59,18.20
2015,07,20,04,00,18.20
2015,07,20,04,01,18.20
2015,07,20,04,02,18.20
2015,07,20,04,03,18.20
2015,07,20,04,04,18.30
2015,07,20,04,05,18.30
2015,07,20,04,06,18.20
2015,07,20,04,07,18.20
2015,07,20,04,08,18.20
2015,07,20,04,09,18.20
2015,07,20,04,10,18.20
2015,07,20,04,11,18.20
2015,07,20,04,12,18.20
2015,07,20,04,13,18.20
2015,07,20,04,14,18.10
2015,07,20,04,15,18.10
2015,07,20,04,16,18.10
2015,07,20,04,17,18.10
2015,07,20,04,18,18.00
2015,07,20,04,19,17.90
2015,07,20,04,20,17.90
2015,07,20,04,21,17.90
2015,07,20,04,22,17.90
2015,07,20,04,23,17.90
2015,07,20,04,24,17.90
2015,07,20,04,25,17.90
2015,07,20,04,26,17.90
2015,07,20,04,27,17.90
2015,07,20,04,28,17.90
2015,07,20,04,29,17.90
2015,07,20,04,30,17.90
2015,07,20,04,31,17.90
2015,07,20,04,32,17.90
2015,07,20,04,33,17.90
2015,07,20,04,34,17.90
2015,07,20,04,35,17.90
2015,07,20,04,36,17.90
2015,07,20,04,37,17.90
2015,07,20,04,38,17.90
2015,07,20,04,39,17.90
2015,07,20,04,40,17.90
2015,07,20,04,41,17.90
2015,07,20,04,42,17.80
2015,07,20,04,43,17.80
2015,07,20,04,44,17.80
2015,07,20,04,45,17.80
2015,07,20,04,46,17.70
2015,07,20,04,47,17.70
2015,07,20,04,48,17.70
2015,07,20,04,49,17.60
2015,07,20,04,50,17.60
2015,07,20,04,51,17.60
2015,07,20,04,52,17.50
2015,07,20,04,53,17.50
2015,07,20,04,54,17.50
2015,07,20,04,55,17.50
2015,07,20,04,56,17.40
2015,07,20,04,57,17.40
2015,07,20,04,58,17.40
2015,07,20,04,59,17.40
2015,07,20,05,00,17.30
2015,07,20,05,01,17.30
2015,07,20,05,02,17.30
2015,07,20,05,03,17.30
2015,07,20,05,04,17.30
2015,07,20,05,05,17.30
2015,07,20,05,06,17.30
2015,07,20,05,07,17.30
2015,07,20,05,08,17.30
2015,07,20,05,09,17.20
2015,07,20,05,10,17.20
2015,07,20,05,11,17.20
2015,07,20,05,12,17.20
2015,07,20,05,13,17.20
2015,07,20,05,14,17.10
2015,07,20,05,15,17.10
2015,07,20,05,16,17.10
2015,07,20,05,17,17.00
2015,07,20,05,18,17.00
2015,07,20,05,19,17.00
2015,07,20,05,20,17.00
2015,07,20,05,21,16.90
2015,07,20,05,22,16.90
2015,07,20,05,23,16.90
2015,07,20,05,24,16.90
2015,07,20,05,25,16.90
2015,07,20,05,26,16.80
2015,07,20,05,27,16.80
2015,07,20,05,28,16.80
2015,07,20,05,29,16.80
2015,07,20,05,30,16.80
2015,07,20,05,31,16.80
2015,07,20,05,32,16.80
2015,07,20,05,33,16.80
2015,07,20,05,34,16.80
2015,07,20,05,35,16.80
2015,07,20,05,36,16.80
2015,07,20,05,37,16.80
2015,07,20,05,38,16.80
2015,07,20,05,39,16.80
2015,07,20,05,40,16.80
2015,07,20,05,41,16.80
2015,07,20,05,42,16.80
2015,07,20,05,43,16.80
2015,07,20,05,44,16.80
2015,07,20,05,45,16.80
2015,07,20,05,46,16.80
2015,07,20,05,47,16.90
2015,07,20,05,48,16.90
2015,07,20,05,49,16.90
2015,07,20,05,50,16.90
2015,07,20,05,51,16.90
2015,07,20,05,52,16.90
2015,07,20,05,53,16.90
2015,07,20,05,54,16.90
2015,07,20,05,55,17.00
2015,07,20,05,56,17.00
2015,07,20,05,57,17.10
2015,07,20,05,58,17.10
2015,07,20,05,59,17.20
2015,07,20,06,00,17.20
2015,07,20,06,01,17.20
2015,07,20,06,02,17.30
2015,07,20,06,03,17.30
2015,07,20,06,04,17.30
2015,07,20,06,05,17.30
2015,07,20,06,06,17.30
2015,07,20,06,07,17.30
2015,07,20,06,08,17.30
2015,07,20,06,09,17.30
2015,07,20,06,10,17.30
2015,07,20,06,11,17.30
2015,07,20,06,12,17.30
2015,07,20,06,13,17.20
2015,07,20,06,14,17.20
2015,07,20,06,15,17.10
2015,07,20,06,16,17.10
2015,07,20,06,17,17.00
2015,07,20,06,18,16.90
2015,07,20,06,19,16.90
2015,07,20,06,20,16.80
2015,07,20,06,21,16.70
2015,07,20,06,22,16.70
2015,07,20,06,23,16.70
2015,07,20,06,24,16.60
2015,07,20,06,25,16.60
2015,07,20,06,26,16.50
2015,07,20,06,27,16.40
2015,07,20,06,28,16.30
2015,07,20,06,29,16.20
2015,07,20,06,30,16.10
2015,07,20,06,31,16.10
2015,07,20,06,32,16.10
2015,07,20,06,33,16.10
2015,07,20,06,34,16.10
2015,07,20,06,35,16.10
2015,07,20,06,36,15.90
2015,07,20,06,37,15.90
2015,07,20,06,38,15.90
2015,07,20,06,39,15.80
2015,07,20,06,40,15.80
2015,07,20,06,41,15.80
2015,07,20,06,42,15.80
2015,07,20,06,43,15.80
2015,07,20,06,44,15.80
2015,07,20,06,45,15.80
2015,07,20,06,46,15.90
2015,07,20,06,47,16.00
2015,07,20,06,48,16.10
2015,07,20,06,49,16.10
2015,07,20,06,50,16.10
2015,07,20,06,51,16.10
2015,07,20,06,52,16.10
2015,07,20,06,53,16.20
2015,07,20,06,54,16.30
2015,07,20,06,55,16.30
2015,07,20,06,56,16.40
2015,07,20,06,57,16.40
2015,07,20,06,58,16.40
2015,07,20,06,59,16.40
2015,07,20,07,00,16.40
2015,07,20,07,01,16.40
2015,07,20,07,02,16.40
2015,07,20,07,03,16.40
2015,07,20,07,04,16.40
2015,07,20,07,05,16.40
2015,07,20,07,06,16.40
2015,07,20,07,07,16.40
2015,07,20,07,08,16.40
2015,07,20,07,09,16.30
2015,07,20,07,10,16.30
2015,07,20,07,11,16.30
2015,07,20,07,12,16.30
2015,07,20,07,13,16.30
2015,07,20,07,14,16.30
2015,07,20,07,15,16.30
2015,07,20,07,16,16.30
2015,07,20,07,17,16.40
2015,07,20,07,18,16.40
2015,07,20,07,19,16.40
2015,07,20,07,20,16.40
2015,07,20,07,21,16.50
2015,07,20,07,22,16.50
2015,07,20,07,23,16.40
2015,07,20,07,24,16.40
2015,07,20,07,25,16.40
2015,07,20,07,26,16.40
2015,07,20,07,27,16.40
2015,07,20,07,28,16.40
2015,07,20,07,29,16.30
2015,07,20,07,30,16.30
2015,07,20,07,31,16.30
2015,07,20,07,32,16.20
2015,07,20,07,33,16.20
2015,07,20,07,34,16.20
2015,07,20,07,35,16.20
2015,07,20,07,36,16.30
2015,07,20,07,37,16.30
2015,07,20,07,38,16.30
2015,07,20,07,39,16.30
2015,07,20,07,40,16.30
2015,07,20,07,41,16.30
2015,07,20,07,42,16.40
2015,07,20,07,43,16.40
2015,07,20,07,44,16.30
2015,07,20,07,45,16.30
2015,07,20,07,46,16.20
2015,07,20,07,47,16.20
2015,07,20,07,48,16.20
2015,07,20,07,49,16.20
2015,07,20,07,50,16.20
2015,07,20,07,51,16.20
2015,07,20,07,52,16.20
2015,07,20,07,53,16.20
2015,07,20,07,54,16.10
2015,07,20,07,55,15.90
2015,07,20,07,56,15.80
2015,07,20,07,57,15.70
2015,07,20,07,58,15.70
2015,07,20,07,59,15.70
2015,07,20,08,00,15.80
2015,07,20,08,01,15.80
2015,07,20,08,02,15.80
2015,07,20,08,03,15.90
2015,07,20,08,04,16.10
2015,07,20,08,05,16.20
2015,07,20,08,06,16.30
2015,07,20,08,07,16.40
2015,07,20,08,08,16.50
2015,07,20,08,09,16.60
2015,07,20,08,10,16.60
2015,07,20,08,11,16.40
2015,07,20,08,12,16.40
2015,07,20,08,13,16.40
2015,07,20,08,14,16.40
2015,07,20,08,15,16.40
2015,07,20,08,16,16.40
2015,07,20,08,17,16.40
2015,07,20,08,18,16.40
2015,07,20,08,19,16.50
2015,07,20,08,20,16.60
2015,07,20,08,21,16.60
2015,07,20,08,22,16.60
2015,07,20,08,23,16.60
2015,07,20,08,24,16.60
2015,07,20,08,25,16.70
2015,07,20,08,26,16.70
2015,07,20,08,27,16.60
2015,07,20,08,28,16.60
2015,07,20,08,29,16.70
2015,07,20,08,30,16.70
2015,07,20,08,31,16.70
2015,07,20,08,32,16.70
2015,07,20,08,33,16.70
2015,07,20,08,34,16.70
2015,07,20,08,35,16.70
2015,07,20,08,36,16.70
2015,07,20,08,37,16.70
2015,07,20,08,38,16.70
2015,07,20,08,39,16.70
2015,07,20,08,40,16.70
2015,07,20,08,41,16.70
2015,07,20,08,42,16.70
2015,07,20,08,43,16.70
2015,07,20,08,44,16.70
2015,07,20,08,45,16.70
2015,07,20,08,46,16.70
2015,07,20,08,47,16.70
2015,07,20,08,48,16.70
2015,07,20,08,49,16.70
2015,07,20,08,50,16.70
2015,07,20,08,51,16.70
2015,07,20,08,52,16.70
2015,07,20,08,53,16.70
2015,07,20,08,54,16.70
2015,07,20,08,55,16.70
2015,07,20,08,56,16.70
2015,07,20,08,57,16.70
2015,07,20,08,58,16.60
2015,07,20,08,59,16.60
2015,07,20,09,00,16.50
2015,07,20,09,01,16.40
2015,07,20,09,02,16.30
2015,07,20,09,03,16.30
2015,07,20,09,04,16.40
2015,07,20,09,05,16.40
2015,07,20,09,06,16.50
2015,07,20,09,07,16.60
2015,07,20,09,08,16.70
2015,07,20,09,09,16.60
2015,07,20,09,10,16.40
2015,07,20,09,11,16.40
2015,07,20,09,12,16.40
2015,07,20,09,13,16.60
2015,07,20,09,14,16.50
2015,07,20,09,15,16.40
2015,07,20,09,16,16.40
2015,07,20,09,17,16.30
2015,07,20,09,18,16.30
2015,07,20,09,19,16.30
2015,07,20,09,20,16.30
2015,07,20,09,21,16.30
2015,07,20,09,22,16.30
2015,07,20,09,23,16.40
2015,07,20,09,24,16.40
2015,07,20,09,25,16.40
2015,07,20,09,26,16.40
2015,07,20,09,27,16.40
2015,07,20,09,28,16.50
2015,07,20,09,29,16.50
2015,07,20,09,30,16.40
2015,07,20,09,31,16.40
2015,07,20,09,32,16.50
2015,07,20,09,33,16.60
2015,07,20,09,34,16.60
2015,07,20,09,35,16.70
2015,07,20,09,36,16.70
2015,07,20,09,37,16.80
2015,07,20,09,38,16.80
2015,07,20,09,39,16.90
2015,07,20,09,40,16.90
2015,07,20,09,41,16.90
2015,07,20,09,42,17.00
2015,07,20,09,43,17.10
2015,07,20,09,44,17.30
2015,07,20,09,45,17.30
2015,07,20,09,46,17.40
2015,07,20,09,47,17.30
2015,07,20,09,48,17.30
2015,07,20,09,49,17.30
2015,07,20,09,50,17.30
2015,07,20,09,51,17.30
2015,07,20,09,52,17.20
2015,07,20,09,53,17.30
2015,07,20,09,54,17.30
2015,07,20,09,55,17.30
2015,07,20,09,56,17.30
2015,07,20,09,57,17.40
2015,07,20,09,58,17.40
2015,07,20,09,59,17.40
2015,07,20,10,00,17.30
2015,07,20,10,01,17.30
2015,07,20,10,02,17.30
2015,07,20,10,03,17.40
2015,07,20,10,04,17.50
2015,07,20,10,05,17.60
2015,07,20,10,06,17.70
2015,07,20,10,07,17.80
2015,07,20,10,08,17.90
2015,07,20,10,09,18.00
2015,07,20,10,10,18.00
2015,07,20,10,11,17.90
2015,07,20,10,12,18.00
2015,07,20,10,13,18.10
2015,07,20,10,14,18.20
2015,07,20,10,15,18.30
2015,07,20,10,16,18.30
2015,07,20,10,17,18.30
2015,07,20,10,18,18.20
2015,07,20,10,19,18.20
2015,07,20,10,20,18.20
2015,07,20,10,21,18.20
2015,07,20,10,22,18.20
2015,07,20,10,23,18.30
2015,07,20,10,24,18.50
2015,07,20,10,25,18.60
2015,07,20,10,26,18.50
2015,07,20,10,27,18.50
2015,07,20,10,28,18.30
2015,07,20,10,29,18.20
2015,07,20,10,30,18.10
2015,07,20,10,31,18.10
2015,07,20,10,32,18.20
2015,07,20,10,33,18.30
2015,07,20,10,34,18.50
2015,07,20,10,35,18.60
2015,07,20,10,36,18.60
2015,07,20,10,37,18.60
2015,07,20,10,38,18.50
2015,07,20,10,39,18.50
2015,07,20,10,40,18.50
2015,07,20,10,41,18.40
2015,07,20,10,42,18.30
2015,07,20,10,43,18.20
2015,07,20,10,44,18.20
2015,07,20,10,45,18.20
2015,07,20,10,46,18.30
2015,07,20,10,47,18.30
2015,07,20,10,48,18.30
2015,07,20,10,49,18.40
2015,07,20,10,50,18.30
2015,07,20,10,51,18.20
2015,07,20,10,52,18.10
2015,07,20,10,53,18.10
2015,07,20,10,54,18.20
2015,07,20,10,55,18.40
2015,07,20,10,56,18.50
2015,07,20,10,57,18.50
2015,07,20,10,58,18.50
2015,07,20,10,59,18.40
2015,07,20,11,00,18.40
2015,07,20,11,01,18.40
2015,07,20,11,02,18.60
2015,07,20,11,03,18.80
2015,07,20,11,04,19.00
2015,07,20,11,05,18.90
2015,07,20,11,06,18.90
2015,07,20,11,07,19.00
2015,07,20,11,08,19.20
2015,07,20,11,09,19.30
2015,07,20,11,10,19.40
2015,07,20,11,11,19.40
2015,07,20,11,12,19.50
2015,07,20,11,13,19.50
2015,07,20,11,14,19.60
2015,07,20,11,15,19.70
2015,07,20,11,16,19.70
2015,07,20,11,17,19.80
2015,07,20,11,18,19.90
2015,07,20,11,19,19.90
2015,07,20,11,20,20.00
2015,07,20,11,21,20.20
2015,07,20,11,22,20.20
2015,07,20,11,23,20.20
2015,07,20,11,24,20.20
2015,07,20,11,25,20.20
2015,07,20,11,26,20.20
2015,07,20,11,27,20.20
2015,07,20,11,28,20.30
2015,07,20,11,29,20.30
2015,07,20,11,30,20.20
2015,07,20,11,31,20.20
2015,07,20,11,32,20.30
2015,07,20,11,33,20.40
2015,07,20,11,34,20.40
2015,07,20,11,35,20.30
2015,07,20,11,36,20.20
2015,07,20,11,37,20.30
2015,07,20,11,38,20.30
2015,07,20,11,39,20.30
2015,07,20,11,40,20.30
2015,07,20,11,41,20.20
2015,07,20,11,42,20.20
2015,07,20,11,43,20.10
2015,07,20,11,44,20.00
2015,07,20,11,45,19.90
2015,07,20,11,46,19.90
2015,07,20,11,47,19.90
2015,07,20,11,48,19.90
2015,07,20,11,49,19.90
2015,07,20,11,50,20.00
2015,07,20,11,51,20.10
2015,07,20,11,52,20.20
2015,07,20,11,53,20.20
2015,07,20,11,54,20.30
2015,07,20,11,55,20.30
2015,07,20,11,56,20.40
2015,07,20,11,57,20.50
2015,07,20,11,58,20.70
2015,07,20,11,59,20.70
2015,07,20,12,00,20.80
2015,07,20,12,01,20.90
2015,07,20,12,02,21.00
2015,07,20,12,03,21.00
2015,07,20,12,04,20.90
2015,07,20,12,05,20.90
2015,07,20,12,06,20.90
2015,07,20,12,07,20.80
2015,07,20,12,08,20.80
2015,07,20,12,09,20.80
2015,07,20,12,10,20.80
2015,07,20,12,11,20.90
2015,07,20,12,12,21.10
2015,07,20,12,13,21.20
2015,07,20,12,14,21.40
2015,07,20,12,15,21.50
2015,07,20,12,16,21.60
2015,07,20,12,17,21.80
2015,07,20,12,18,21.90
2015,07,20,12,19,21.90
2015,07,20,12,20,22.00
2015,07,20,12,21,22.00
2015,07,20,12,22,22.10
2015,07,20,12,23,22.20
2015,07,20,12,24,22.40
2015,07,20,12,25,22.60
2015,07,20,12,26,22.80
2015,07,20,12,27,22.80
2015,07,20,12,28,22.70
2015,07,20,12,29,22.60
2015,07,20,12,30,22.60
2015,07,20,12,31,22.50
2015,07,20,12,32,22.50
2015,07,20,12,33,22.70
2015,07,20,12,34,22.70
2015,07,20,12,35,22.60
2015,07,20,12,36,22.60
2015,07,20,12,37,22.80
2015,07,20,12,38,22.90
2015,07,20,12,39,23.00
2015,07,20,12,40,23.10
2015,07,20,12,41,23.20
2015,07,20,12,42,23.30
2015,07,20,12,43,23.30
2015,07,20,12,44,23.30
2015,07,20,12,45,23.30
2015,07,20,12,46,23.30
2015,07,20,12,47,23.30
2015,07,20,12,48,23.40
2015,07,20,12,49,23.40
2015,07,20,12,50,23.50
2015,07,20,12,51,23.40
2015,07,20,12,52,23.40
2015,07,20,12,53,23.40
2015,07,20,12,54,23.50
2015,07,20,12,55,23.60
2015,07,20,12,56,23.70
2015,07,20,12,57,23.70
2015,07,20,12,58,23.80
2015,07,20,12,59,23.70
2015,07,20,13,00,23.50
2015,07,20,13,01,23.30
2015,07,20,13,02,23.30
2015,07,20,13,03,23.30
2015,07,20,13,04,23.20
2015,07,20,13,05,23.20
2015,07,20,13,06,23.10
2015,07,20,13,07,23.10
2015,07,20,13,08,23.10
2015,07,20,13,09,23.10
2015,07,20,13,10,23.20
2015,07,20,13,11,23.30
2015,07,20,13,12,23.30
2015,07,20,13,13,23.30
2015,07,20,13,14,23.30
2015,07,20,13,15,23.20
2015,07,20,13,16,23.20
2015,07,20,13,17,23.20
2015,07,20,13,18,23.00
2015,07,20,13,19,22.90
2015,07,20,13,20,22.90
2015,07,20,13,21,22.70
2015,07,20,13,22,22.50
2015,07,20,13,23,22.50
2015,07,20,13,24,22.50
2015,07,20,13,25,22.50
2015,07,20,13,26,22.50
2015,07,20,13,27,22.60
2015,07,20,13,28,22.60
2015,07,20,13,29,22.60
2015,07,20,13,30,22.60
2015,07,20,13,31,22.50
2015,07,20,13,32,22.50
2015,07,20,13,33,22.60
2015,07,20,13,34,22.60
2015,07,20,13,35,22.70
2015,07,20,13,36,22.70
2015,07,20,13,37,22.60
2015,07,20,13,38,22.60
2015,07,20,13,39,22.60
2015,07,20,13,40,22.60
2015,07,20,13,41,22.60
2015,07,20,13,42,22.60
2015,07,20,13,43,22.60
2015,07,20,13,44,22.70
2015,07,20,13,45,22.70
2015,07,20,13,46,22.70
2015,07,20,13,47,22.80
2015,07,20,13,48,22.80
2015,07,20,13,49,23.00
2015,07,20,13,50,23.20
2015,07,20,13,51,23.20
2015,07,20,13,52,23.30
2015,07,20,13,53,23.30
2015,07,20,13,54,23.30
2015,07,20,13,55,23.30
2015,07,20,13,56,23.30
2015,07,20,13,57,23.30
2015,07,20,13,58,23.30
2015,07,20,13,59,23.30
2015,07,20,14,00,23.20
2015,07,20,14,01,23.30
2015,07,20,14,02,23.30
2015,07,20,14,03,23.40
2015,07,20,14,04,23.50
2015,07,20,14,05,23.60
2015,07,20,14,06,23.60
2015,07,20,14,07,23.50
2015,07,20,14,08,23.40
2015,07,20,14,09,23.30
2015,07,20,14,10,23.30
2015,07,20,14,11,23.40
2015,07,20,14,12,23.60
2015,07,20,14,13,23.70
2015,07,20,14,14,23.70
2015,07,20,14,15,23.70
2015,07,20,14,16,23.80
2015,07,20,14,17,23.70
2015,07,20,14,18,23.70
2015,07,20,14,19,23.70
2015,07,20,14,20,23.70
2015,07,20,14,21,23.70
2015,07,20,14,22,23.60
2015,07,20,14,23,23.70
2015,07,20,14,24,23.70
2015,07,20,14,25,23.70
2015,07,20,14,26,23.80
2015,07,20,14,27,23.80
2015,07,20,14,28,23.70
2015,07,20,14,29,23.80
2015,07,20,14,30,23.80
2015,07,20,14,31,23.80
2015,07,20,14,32,23.90
2015,07,20,14,33,24.00
2015,07,20,14,34,24.20
2015,07,20,14,35,24.30
2015,07,20,14,36,24.20
2015,07,20,14,37,24.20
2015,07,20,14,38,24.10
2015,07,20,14,39,24.20
2015,07,20,14,40,24.20
2015,07,20,14,41,24.20
2015,07,20,14,42,24.30
2015,07,20,14,43,24.40
2015,07,20,14,44,24.60
2015,07,20,14,45,24.70
2015,07,20,14,46,24.70
2015,07,20,14,47,24.60
2015,07,20,14,48,24.50
2015,07,20,14,49,24.50
2015,07,20,14,50,24.50
2015,07,20,14,51,24.40
2015,07,20,14,52,24.30
2015,07,20,14,53,24.30
2015,07,20,14,54,24.30
2015,07,20,14,55,24.40
2015,07,20,14,56,24.50
2015,07,20,14,57,24.70
2015,07,20,14,58,24.80
2015,07,20,14,59,24.80
2015,07,20,15,00,24.80
2015,07,20,15,01,24.70
2015,07,20,15,02,24.60
2015,07,20,15,03,24.50
2015,07,20,15,04,24.50
2015,07,20,15,05,24.50
2015,07,20,15,06,24.50
2015,07,20,15,07,24.50
2015,07,20,15,08,24.50
2015,07,20,15,09,24.40
2015,07,20,15,10,24.30
2015,07,20,15,11,24.40
2015,07,20,15,12,24.40
2015,07,20,15,13,24.30
2015,07,20,15,14,24.30
2015,07,20,15,15,24.30
2015,07,20,15,16,24.40
2015,07,20,15,17,24.40
2015,07,20,15,18,24.40
2015,07,20,15,19,24.40
2015,07,20,15,20,24.30
2015,07,20,15,21,24.20
2015,07,20,15,22,24.20
2015,07,20,15,23,24.20
2015,07,20,15,24,24.20
2015,07,20,15,25,24.30
2015,07,20,15,26,24.30
2015,07,20,15,27,24.30
2015,07,20,15,28,24.40
2015,07,20,15,29,24.30
2015,07,20,15,30,24.20
2015,07,20,15,31,24.20
2015,07,20,15,32,24.10
2015,07,20,15,33,24.20
2015,07,20,15,34,24.10
2015,07,20,15,35,24.20
2015,07,20,15,36,24.20
2015,07,20,15,37,24.30
2015,07,20,15,38,24.30
2015,07,20,15,39,24.30
2015,07,20,15,40,24.20
2015,07,20,15,41,24.20
2015,07,20,15,42,24.20
2015,07,20,15,43,24.20
2015,07,20,15,44,24.10
2015,07,20,15,45,24.10
2015,07,20,15,46,24.10
2015,07,20,15,47,24.10
2015,07,20,15,48,24.10
2015,07,20,15,49,24.10
2015,07,20,15,50,24.20
2015,07,20,15,51,24.10
2015,07,20,15,52,23.90
2015,07,20,15,53,23.80
2015,07,20,15,54,23.80
2015,07,20,15,55,23.70
2015,07,20,15,56,23.70
2015,07,20,15,57,23.60
2015,07,20,15,58,23.50
2015,07,20,15,59,23.40
2015,07,20,16,00,23.30
2015,07,20,16,01,23.40
2015,07,20,16,02,23.40
2015,07,20,16,03,23.60
2015,07,20,16,04,23.50
2015,07,20,16,05,23.40
2015,07,20,16,06,23.20
2015,07,20,16,07,23.20
2015,07,20,16,08,23.30
2015,07,20,16,09,23.30
2015,07,20,16,10,23.20
2015,07,20,16,11,23.10
2015,07,20,16,12,22.90
2015,07,20,16,13,22.90
2015,07,20,16,14,22.90
2015,07,20,16,15,22.90
2015,07,20,16,16,22.90
2015,07,20,16,17,22.90
2015,07,20,16,18,22.90
2015,07,20,16,19,22.80
2015,07,20,16,20,22.80
2015,07,20,16,21,22.70
2015,07,20,16,22,22.80
2015,07,20,16,23,22.90
2015,07,20,16,24,22.90
2015,07,20,16,25,22.90
2015,07,20,16,26,22.90
2015,07,20,16,27,22.90
2015,07,20,16,28,22.90
2015,07,20,16,29,22.90
2015,07,20,16,30,22.90
2015,07,20,16,31,22.90
2015,07,20,16,32,22.90
2015,07,20,16,33,22.90
2015,07,20,16,34,22.90
2015,07,20,16,35,22.90
2015,07,20,16,36,22.80
2015,07,20,16,37,22.80
2015,07,20,16,38,22.80
2015,07,20,16,39,22.90
2015,07,20,16,40,22.90
2015,07,20,16,41,22.90
2015,07,20,16,42,22.90
2015,07,20,16,43,22.80
2015,07,20,16,44,22.80
2015,07,20,16,45,22.90
2015,07,20,16,46,22.90
2015,07,20,16,47,22.90
2015,07,20,16,48,22.90
2015,07,20,16,49,22.90
2015,07,20,16,50,22.90
2015,07,20,16,51,22.90
2015,07,20,16,52,22.90
2015,07,20,16,53,22.90
2015,07,20,16,54,22.90
2015,07,20,16,55,22.90
2015,07,20,16,56,23.00
2015,07,20,16,57,23.00
2015,07,20,16,58,22.90
2015,07,20,16,59,22.90
2015,07,20,17,00,22.90
2015,07,20,17,01,22.80
2015,07,20,17,02,22.80
2015,07,20,17,03,22.80
2015,07,20,17,04,22.80
2015,07,20,17,05,22.80
2015,07,20,17,06,22.90
2015,07,20,17,07,22.90
2015,07,20,17,08,22.80
2015,07,20,17,09,22.80
2015,07,20,17,10,22.80
2015,07,20,17,11,22.90
2015,07,20,17,12,22.90
2015,07,20,17,13,23.10
2015,07,20,17,14,23.10
2015,07,20,17,15,23.10
2015,07,20,17,16,23.00
2015,07,20,17,17,22.90
2015,07,20,17,18,22.90
2015,07,20,17,19,22.90